Location: Gajan
(43.0218°N, 1.1244°E)
Time: 22:06:45
(UTC+00:00)

N. Korean satellite - Pass Details

Date: 03 October 2021
Orbit: 450 x 494 km, 97.3° (Epoch: 28 October)

Event Time Altitude Azimuth Distance (km) Brightness Sun altitude
Rises 04:28:02 0° 26° (NNE) 2,560 10.8 -16.7°
Reaches altitude 10° 04:30:26 10° 41° (NE) 1,681 10.0 -16.3°
Maximum altitude 04:33:20 22° 95° (E) 1,105 9.3 -15.7°
Drops below altitude 10° 04:36:14 10° 148° (SSE) 1,684 9.6 -15.2°
Sets 04:38:38 0° 164° (SSE) 2,565 10.3 -14.8°
